Tracking 19794 objects as of 23-Jul-2019
HD Live streaming from Space Station
objects crossing your sky now

GB 1

Track GB 1 now!
10-day predictions
GB 1 is classified as:


NORAD ID: 14143
Int'l Code: 1983-056C
Perigee: 384.4 km
Apogee: 1,745.1 km
Inclination: 63.3 °
Period: 106.4 minutes
Semi major axis: 7435 km
RCS: Unknown
Launch date: June 9, 1983
Source: United States (US)
Launch site: AIR FORCE WESTERN TEST RANGE (AFWTR)
aabbcc
Your satellite tracking list
Your tracking list is empty




NASA's NSSDC Master Catalog

Two Line Element Set (TLE):
1 14143U 83056C   19202.99438437  .00000420  00000-0  46150-4 0  9992
2 14143  63.2927 217.0287 0915017  86.0422 284.4618 13.53988013  2765
Source of the keplerian elements: McCants